| time (UTC) | temp F | wind direction | speed MPH | gust MPH | rain 1hr in | rain 24hr in | rain mn in | humidity % | barometer mb |
| 20260508012954 | 63 | 180 | 0.0 | 0.0 | 0.00 | 0.00 | 0.00 | 77 | 1016.6 |
| 20260508011452 | 63 | 180 | 0.0 | 1.0 | 0.00 | 0.00 | 0.00 | 76 | 1016.6 |
| 20260508005950 | 63 | 225 | 0.0 | 0.0 | 0.00 | 0.00 | 0.00 | 75 | 1016.7 |
| 20260508004448 | 63 | 225 | 0.0 | 2.0 | 0.00 | 0.00 | 0.00 | 74 | 1016.8 |
| 20260508002945 | 63 | 45 | 0.0 | 2.0 | 0.00 | 0.00 | 0.00 | 74 | 1016.7 |
| 20260508001443 | 63 | 45 | 2.0 | 2.0 | 0.00 | 0.00 | 0.00 | 73 | 1016.9 |
| 20260507235941 | 63 | 315 | 0.0 | 0.0 | 0.00 | 0.00 | 0.00 | 73 | 1017.0 |
| 20260507234439 | 63 | 270 | 0.0 | 0.0 | 0.00 | 0.00 | 0.00 | 72 | 1017.1 |
| 20260507232936 | 63 | 270 | 0.0 | 0.0 | 0.00 | 0.00 | 0.00 | 72 | 1017.2 |
| 20260507231435 | 63 | 180 | 0.0 | 0.0 | 0.00 | 0.00 | 0.00 | 72 | 1017.3 |
| 20260507225932 | 63 | 315 | 0.0 | 0.0 | 0.00 | 0.00 | 0.00 | 71 | 1017.6 |
| 20260507224430 | 63 | 45 | 0.0 | 0.0 | 0.00 | 0.00 | 0.00 | 71 | 1017.7 |
| 20260507222928 | 63 | 0 | 0.0 | 0.0 | 0.00 | 0.00 | 0.00 | 71 | 1017.7 |
| 20260507221426 | 64 | 45 | 0.0 | 0.0 | 0.00 | 0.00 | 0.00 | 68 | 1017.8 |
| 20260507215924 | 64 | 0 | 0.0 | 2.0 | 0.00 | 0.00 | 0.00 | 68 | 1017.9 |
| 20260507214422 | 64 | 270 | 0.0 | 3.0 | 0.00 | 0.00 | 0.00 | 67 | 1018.0 |
| 20260507212920 | 64 | 315 | 2.0 | 3.0 | 0.00 | 0.00 | 0.00 | 67 | 1018.1 |
| 20260507211417 | 64 | 270 | 0.0 | 1.0 | 0.00 | 0.00 | 0.00 | 66 | 1017.9 |
| 20260507205916 | 64 | 180 | 0.0 | 2.0 | 0.00 | 0.00 | 0.00 | 66 | 1017.8 |
| 20260507204413 | 64 | 45 | 1.0 | 2.0 | 0.00 | 0.00 | 0.00 | 65 | 1017.8 |
| 20260507202912 | 65 | 315 | 2.0 | 3.0 | 0.00 | 0.00 | 0.00 | 65 | 1017.9 |
| 20260507201409 | 65 | 0 | 2.0 | 2.0 | 0.00 | 0.00 | 0.00 | 65 | 1018.0 |
| 20260507195906 | 65 | 270 | 0.0 | 1.0 | 0.00 | 0.00 | 0.00 | 65 | 1018.1 |
| 20260507194405 | 65 | 270 | 0.0 | 2.0 | 0.00 | 0.00 | 0.00 | 66 | 1018.0 |
| 20260507192902 | 66 | 225 | 0.0 | 2.0 | 0.00 | 0.00 | 0.00 | 66 | 1017.9 |
| 20260507191400 | 66 | 225 | 0.0 | 1.0 | 0.00 | 0.00 | 0.00 | 67 | 1018.1 |
| 20260507185859 | 67 | 45 | 1.0 | 3.0 | 0.00 | 0.00 | 0.00 | 67 | 1017.8 |
| 20260507184355 | 67 | 225 | 0.0 | 2.0 | 0.00 | 0.00 | 0.00 | 67 | 1017.9 |
| 20260507182854 | 68 | 225 | 0.0 | 2.0 | 0.00 | 0.00 | 0.00 | 66 | 1017.7 |
| 20260507181352 | 68 | 315 | 1.0 | 2.0 | 0.00 | 0.00 | 0.00 | 65 | 1017.6 |
| 20260507175850 | 69 | 315 | 2.0 | 2.0 | 0.00 | 0.00 | 0.00 | 65 | 1017.7 |
| 20260507174348 | 69 | 225 | 0.0 | 2.0 | 0.00 | 0.00 | 0.00 | 63 | 1017.4 |
| 20260507172845 | 69 | 225 | 1.0 | 2.0 | 0.00 | 0.00 | 0.00 | 62 | 1017.7 |
| 20260507171344 | 69 | 225 | 2.0 | 2.0 | 0.00 | 0.00 | 0.00 | 63 | 1017.7 |
| 20260507165841 | 69 | 270 | 1.0 | 2.0 | 0.00 | 0.00 | 0.00 | 62 | 1017.4 |
| 20260507164339 | 70 | 315 | 0.0 | 3.0 | 0.00 | 0.00 | 0.00 | 61 | 1017.7 |
| 20260507162837 | 70 | 270 | 1.0 | 2.0 | 0.00 | 0.00 | 0.00 | 60 | 1017.6 |
| 20260507161334 | 71 | 225 | 0.0 | 3.0 | 0.00 | 0.00 | 0.00 | 60 | 1017.4 |
| 20260507155833 | 71 | 135 | 2.0 | 3.0 | 0.00 | 0.00 | 0.00 | 60 | 1017.5 |
| 20260507154331 | 70 | 180 | 1.0 | 4.0 | 0.00 | 0.00 | 0.00 | 58 | 1017.3 |
| 20260507152828 | 71 | 270 | 2.0 | 4.0 | 0.00 | 0.00 | 0.00 | 59 | 1017.4 |
| 20260507151329 | 71 | 225 | 3.0 | 5.0 | 0.00 | 0.00 | 0.00 | 59 | 1017.6 |
| 20260507145823 | 71 | 158 | 3.0 | 6.0 | 0.00 | 0.00 | 0.00 | 56 | 1018.0 |
| 20260507144322 | 71 | 180 | 3.0 | 5.0 | 0.00 | 0.00 | 0.00 | 53 | 1018.0 |
| 20260507142819 | 72 | 315 | 2.0 | 8.0 | 0.00 | 0.00 | 0.00 | 54 | 1017.9 |
| 20260507141317 | 73 | 135 | 3.0 | 8.0 | 0.00 | 0.00 | 0.00 | 52 | 1018.0 |
| 20260507135815 | 73 | 135 | 6.0 | 8.0 | 0.00 | 0.00 | 0.00 | 53 | 1018.0 |
| 20260507134314 | 73 | 225 | 4.0 | 9.0 | 0.00 | 0.00 | 0.00 | 51 | 1017.8 |
| 20260507132810 | 74 | 180 | 4.0 | 7.0 | 0.00 | 0.00 | 0.00 | 47 | 1017.9 |
| 20260507131309 | 74 | 180 | 5.0 | 8.0 | 0.00 | 0.00 | 0.00 | 44 | 1017.9 |
| 20260507125807 | 75 | 45 | 2.0 | 8.0 | 0.00 | 0.00 | 0.00 | 45 | 1018.1 |
| 20260507124305 | 75 | 225 | 3.0 | 9.0 | 0.00 | 0.00 | 0.00 | 43 | 1018.4 |
| 20260507122802 | 75 | 270 | 3.0 | 8.0 | 0.00 | 0.00 | 0.00 | 36 | 1018.3 |
| 20260507121300 | 76 | 293 | 4.0 | 7.0 | 0.00 | 0.00 | 0.00 | 43 | 1018.4 |
| 20260507115758 | 76 | 180 | 4.0 | 9.0 | 0.00 | 0.00 | 0.00 | 43 | 1018.5 |
| 20260507114256 | 76 | 90 | 5.0 | 8.0 | 0.00 | 0.00 | 0.00 | 50 | 1018.4 |
| 20260507112753 | 77 | 225 | 6.0 | 9.0 | 0.00 | 0.00 | 0.00 | 52 | 1018.2 |
| 20260507111251 | 76 | 135 | 5.0 | 8.0 | 0.00 | 0.00 | 0.00 | 50 | 1018.4 |
| 20260507105750 | 76 | 180 | 8.0 | 9.0 | 0.00 | 0.00 | 0.00 | 55 | 1018.2 |
| 20260507104247 | 76 | 135 | 6.0 | 9.0 | 0.00 | 0.00 | 0.00 | 61 | 1018.2 |
| 20260507102745 | 74 | 135 | 8.0 | 8.0 | 0.00 | 0.00 | 0.00 | 63 | 1018.4 |
| 20260507101243 | 72 | 225 | 4.0 | 8.0 | 0.00 | 0.00 | 0.00 | 70 | 1018.6 |
| 20260507095741 | 71 | 180 | 6.0 | 8.0 | 0.00 | 0.00 | 0.00 | 71 | 1018.7 |
| 20260507094238 | 71 | 180 | 5.0 | 10.0 | 0.00 | 0.00 | 0.00 | 71 | 1018.8 |
| 20260507092736 | 71 | 180 | 6.0 | 9.0 | 0.00 | 0.00 | 0.00 | 74 | 1018.9 |
| 20260507091235 | 70 | 180 | 7.0 | 8.0 | 0.00 | 0.00 | 0.00 | 77 | 1018.7 |
| 20260507085732 | 70 | 180 | 4.0 | 8.0 | 0.00 | 0.00 | 0.00 | 80 | 1018.4 |
| 20260507084230 | 69 | 135 | 7.0 | 8.0 | 0.00 | 0.00 | 0.00 | 80 | 1018.4 |
| 20260507082727 | 69 | 203 | 3.0 | 9.0 | 0.00 | 0.00 | 0.00 | 80 | 1018.6 |
| 20260507081226 | 68 | 135 | 6.0 | 9.0 | 0.00 | 0.00 | 0.00 | 78 | 1018.6 |
| 20260507075724 | 68 | 180 | 5.0 | 10.0 | 0.00 | 0.00 | 0.00 | 77 | 1018.2 |
| 20260507074222 | 68 | 135 | 8.0 | 10.0 | 0.00 | 0.00 | 0.00 | 76 | 1018.3 |
| 20260507072719 | 67 | 135 | 8.0 | 11.0 | 0.00 | 0.00 | 0.00 | 74 | 1018.0 |
| 20260507071217 | 67 | 135 | 8.0 | 11.0 | 0.00 | 0.00 | 0.00 | 73 | 1017.8 |
| 20260507065715 | 67 | 135 | 5.0 | 12.0 | 0.00 | 0.00 | 0.00 | 72 | 1017.6 |
| 20260507064213 | 66 | 135 | 8.0 | 10.0 | 0.00 | 0.00 | 0.00 | 72 | 1017.4 |
| 20260507062710 | 66 | 180 | 6.0 | 8.0 | 0.00 | 0.00 | 0.00 | 72 | 1017.6 |
| 20260507061209 | 64 | 180 | 4.0 | 7.0 | 0.00 | 0.00 | 0.00 | 72 | 1017.3 |
| 20260507055706 | 63 | 180 | 3.0 | 4.0 | 0.00 | 0.00 | 0.00 | 78 | 1017.1 |
| 20260507054205 | 63 | 180 | 2.0 | 4.0 | 0.00 | 0.00 | 0.00 | 77 | 1017.2 |
| 20260507052702 | 62 | 180 | 3.0 | 4.0 | 0.00 | 0.00 | 0.00 | 74 | 1017.1 |
| 20260507051200 | 60 | 90 | 2.0 | 4.0 | 0.00 | 0.00 | 0.00 | 73 | 1016.9 |
| 20260507045658 | 59 | 90 | 3.0 | 4.0 | 0.00 | 0.00 | 0.00 | 72 | 1016.9 |
| 20260507044155 | 58 | 135 | 2.0 | 2.0 | 0.00 | 0.00 | 0.00 | 72 | 1016.6 |
| 20260507042656 | 58 | 0 | 2.0 | 4.0 | 0.00 | 0.00 | 0.00 | 71 | 1016.4 |
| 20260507041154 | 58 | 180 | 1.0 | 3.0 | 0.00 | 0.00 | 0.00 | 71 | 1016.4 |
| 20260507035650 | 58 | 180 | 0.0 | 4.0 | 0.00 | 0.00 | 0.00 | 71 | 1016.6 |
| 20260507034147 | 57 | 0 | 2.0 | 2.0 | 0.00 | 0.00 | 0.00 | 70 | 1016.3 |
| 20260507032646 | 58 | 0 | 2.0 | 2.0 | 0.00 | 0.00 | 0.00 | 70 | 1016.1 |
| 20260507031143 | 58 | 315 | 0.0 | 2.0 | 0.00 | 0.00 | 0.00 | 70 | 1016.2 |
| 20260507025641 | 58 | 180 | 0.0 | 0.0 | 0.00 | 0.00 | 0.00 | 70 | 1016.0 |
| 20260507024138 | 58 | 180 | 0.0 | 2.0 | 0.00 | 0.00 | 0.00 | 70 | 1015.8 |
| 20260507022636 | 59 | 315 | 1.0 | 2.0 | 0.00 | 0.00 | 0.00 | 70 | 1015.8 |
| 20260507021135 | 59 | 0 | 1.0 | 2.0 | 0.00 | 0.00 | 0.00 | 70 | 1015.8 |
| 20260507015633 | 59 | 180 | 0.0 | 4.0 | 0.00 | 0.00 | 0.00 | 70 | 1015.7 |
| 20260507014130 | 60 | 45 | 2.0 | 4.0 | 0.00 | 0.00 | 0.00 | 70 | 1015.8 |